Back to catalog

COSMOS 2499 DEB

AlivePO
NORAD 60610·DEBRIS·🇷🇺 Russia

Launched May 23, 2014 from Plesetsk Cosmodrome

Loading…

Next Passes (next 24 hours)

TLE

AgingSource: Space-Track

Epoch: Sep 7, 2026, 01:13 UTC

1 60610U 14028BW  26250.05093378  .00125631  00000-0  19456-1 0  9992
2 60610  82.0410  12.0593 0056353  69.2424 291.4809 14.71425580166642

Track COSMOS 2499 DEB in real time with AllMySat

Download on the App Store